Regional Weather Roundup
Issued by NWS Albany, NY

Home | Current Version | Previous Version | Text Only | Print | Product List | Glossary On
Versions: 1 2 3 4 5 6 7 8 9 10 11 12 13 14 15 16 17 18 19 20 21 22 23 24 25 26 27 28
000
ASUS41 KALY 030410
RWRALY

NEW YORK STATE HOURLY WEATHER ROUNDUP
NATIONAL WEATHER SERVICE ALBANY NY
1100 PM EST FRI DEC 02 2016

NOTE: "FAIR" INDICATES FEW OR NO CLOUDS BELOW 12,000 FEET WITH NO
SIGNIFICANT WEATHER AND/OR NO OBSTRUCTIONS TO VISIBILITY.

NYZ032-033-038>043-046>054-057>066-NYZ062>081-082-084-030500-
EAST


CITY           SKY/WX    TMP DP  RH WIND       PRES   REMARKS
ALBANY         CLOUDY    38  30  73 W12G21    29.84R WCI  30
GLENS FALLS    MOCLDY    38  28  67 W3        29.80R
POUGHKEEPSIE   CLOUDY    41  29  62 W14       29.86S
NEWBURGH       MOCLDY    39  32  75 W21G29    29.88S WCI  29
MONTGOMERY     CLOUDY    42  29  59 W10       29.87S
NEW YORK CITY  CLOUDY    46  29  51 W17G25    29.91R
CENTRAL PARK   CLOUDY    44  29  55 VRB5      29.93S
$$

NYZ005>009-017-018-044>046-055-056-030500-
CENTRAL


CITY           SKY/WX    TMP DP  RH WIND       PRES   REMARKS
FULTON         CLOUDY    39  30  70 NW16G23   29.91  WCI  30
SYRACUSE       FLURRIES  35  34  96 W10       29.91R WCI  27
ROME           CLOUDY    33  33 100 W9        29.90R WCI  25
ELMIRA         CLOUDY    38  29  70 W8        29.95R WCI  32
BINGHAMTON     LGT SNOW  31  30  96 NW9G18    29.89R VSB 1   WCI  23
MONTICELLO     CLOUDY    36  28  75 W14G20    29.86S WCI  27
$$

NYZ026>034-041>043-087-030500-
NORTH


CITY           SKY/WX    TMP DP  RH WIND       PRES   REMARKS
WATERTOWN      NOT AVBL
FORT DRUM      NOT AVBL
OGDENSBURG     MOCLDY    37  31  81 NW12      29.85R WCI  29
MASSENA        CLOUDY    36  29  75 W13       29.83R WCI  27
SARANAC LAKE   LGT SNOW  30  27  88 VRB6      29.73S FOG     WCI  24
PLATTSBURGH    CLOUDY    37  28  70 NW6       29.76R WCI  32
$$

NYZ001>004-010>016-019>021-085-030500-
WEST


CITY           SKY/WX    TMP DP  RH WIND       PRES   REMARKS
NIAGARA FALLS  CLOUDY    39  30  70 W14G23    30.03R WCI  31
BUFFALO        CLOUDY    37  32  82 W15       30.03R WCI  28
DUNKIRK        CLOUDY    38  34  85 W15G28    30.07R WCI  29
JAMESTOWN      CLOUDY    34  30  86 NW16G25   30.02R WCI  23
WELLSVILLE     LGT SNOW  34  31  88 NW14G31   29.96R FOG     WCI  25
ROCHESTER      CLOUDY    37  33  85 W8        29.98R WCI  31
PENN YAN       FLURRIES  36  29  75 W10G18    29.96R WCI  28
$$

             KEY
       WCI = WIND CHILL INDEX
       VSB = VISIBILITY
       HX  = HEAT INDEX
$$




USA.gov is the U.S. government's official web portal to all federal, state and local government web resources and services.